Needles, CA

10:55 AM PDT on June 23, 2017 (GMT -0700)
Needles

Weather History for KEED - June, 2014

Change the Weather History Date:

Saturday, June 28, 2014

  Actual Average Record
Temperature  
Mean Temperature 96 °F 94 °F  
Max Temperature 109 °F 108 °F 121 °F (2013)
Min Temperature 82 °F 81 °F 62 °F (1909)
Degree Days  
Heating Degree Days 0    
Cooling Degree Days 30    
Growing Degree Days 46 (Base 50)    
Moisture  
Dew Point 40 °F    
Average Humidity 14    
Maximum Humidity 21    
Minimum Humidity 8    
Precipitation  
Precipitation 0.00 in 0.00 in 0.30 in (1925)
Month to date precipitation 0.03  
Year to date precipitation 2.38  
Sea Level Pressure  
Sea Level Pressure 29.59 in    
Wind  
Wind Speed 9 mph (SSW)    
Max Wind Speed 17 mph    
Max Gust Speed 25 mph    
Visibility 10 miles    
Events      
T = Trace of Precipitation, MM = Missing Value Source: NWS Daily Summary

Daily Weather History Graph

Daily Weather History Graph

Search for Another Location

Airport or City:

Trip Planner

Search our weather history database for the weather conditions in past years. The results will help you decide how hot, cold, wet, or windy it might be!

Date:

Astronomy

Jun. 28, 2014 Rise Set
Actual Time 5:27 AM PDT 7:55 PM PDT
Civil Twilight 4:58 AM PDT 8:25 PM PDT
Nautical Twilight 4:21 AM PDT 9:01 PM PDT
Astronomical Twilight 3:41 AM PDT 9:41 PM PDT
Moon 6:49 AM PDT (6/28) 8:49 PM PDT (6/28)
Length of Visible Light 15h 27m
Length of Day
14h 28m
New Moon, 2% of the Moon is Illuminated
Jun 28
New Moon
Jul 5
First Quarter
Jul 12
Full
Jul 18
Last Quarter
Jul 26
New

Hourly Weather History & Observations

Time (PDT) Temp. Dew Point Humidity Pressure Visibility Wind Dir Wind Speed Gust Speed Precip Events Conditions
12:56 AM 93.0 °F 39.0 °F 15% 29.54 in 10.0 mi WSW 13.8 mph - N/A   Clear
1:56 AM 91.0 °F 39.9 °F 17% 29.55 in 10.0 mi WSW 6.9 mph - N/A   Clear
2:56 AM 90.0 °F 39.0 °F 17% 29.55 in 10.0 mi West 9.2 mph - N/A   Clear
3:56 AM 87.1 °F 39.0 °F 18% 29.56 in 10.0 mi SW 5.8 mph - N/A   Clear
4:56 AM 84.9 °F 39.0 °F 20% 29.58 in 10.0 mi SSW 6.9 mph - N/A   Clear
5:56 AM 82.9 °F 39.0 °F 21% 29.60 in 10.0 mi SE 4.6 mph - N/A   Clear
6:56 AM 87.1 °F 39.9 °F 19% 29.62 in 10.0 mi South 5.8 mph - N/A   Clear
7:56 AM 91.0 °F 39.9 °F 17% 29.63 in 10.0 mi SE 4.6 mph - N/A   Clear
8:56 AM 93.9 °F 39.9 °F 15% 29.65 in 10.0 mi East 4.6 mph - N/A   Clear
9:56 AM 98.1 °F 42.1 °F 15% 29.65 in 10.0 mi SE 8.1 mph - N/A   Clear
10:56 AM 102.0 °F 42.1 °F 13% 29.65 in 10.0 mi SE 9.2 mph - N/A   Clear
11:56 AM 106.0 °F 39.0 °F 10% 29.63 in 10.0 mi SSW 8.1 mph - N/A   Clear
12:56 PM 107.1 °F 39.0 °F 10% 29.62 in 10.0 mi South 10.4 mph 23.0 mph N/A   Clear
1:56 PM 108.0 °F 39.0 °F 10% 29.61 in 10.0 mi SSE 9.2 mph 21.9 mph N/A   Clear
2:56 PM 109.0 °F 37.0 °F 9% 29.60 in 10.0 mi South 17.3 mph 24.2 mph N/A   Clear
3:56 PM 109.0 °F 36.0 °F 8% 29.58 in 10.0 mi SSW 16.1 mph 25.3 mph N/A   Clear
4:56 PM 108.0 °F 39.0 °F 10% 29.56 in 10.0 mi SW 9.2 mph 19.6 mph N/A   Clear
5:56 PM 107.1 °F 39.0 °F 10% 29.56 in 10.0 mi SSW 6.9 mph - N/A   Clear
6:56 PM 106.0 °F 41.0 °F 11% 29.56 in 10.0 mi South 12.7 mph - N/A   Clear
7:56 PM 104.0 °F 41.0 °F 12% 29.57 in 10.0 mi SSW 11.5 mph - N/A   Clear
8:56 PM 102.0 °F 44.1 °F 14% 29.58 in 10.0 mi SSW 10.4 mph - N/A   Clear
9:56 PM 100.0 °F 46.0 °F 16% 29.60 in 10.0 mi SW 11.5 mph - N/A   Clear
10:56 PM 97.0 °F 44.1 °F 16% 29.61 in 10.0 mi West 8.1 mph - N/A   Clear
11:56 PM 96.1 °F 43.0 °F 16% 29.61 in 10.0 mi WSW 11.5 mph - N/A   Clear